When you browse on this site, cookies collect data to enhance your experience and personalize the content and advertising you see.
Visit our Privacy Policy to learn more. By continuing to use the site, you agree to this use of cookies and data.
  • In Slovakia
  • List of Countries
  • For 7 days
  • Water Temperature
  • Satellite Maps
  • Weather Map
  • Weather Widgets
  • user-avatar
    Login

    Hourly Weather Konstantyna

    Today, 12 December, Wednesday

    Time Temperature Precipitation Wind Pressure Humidity
    00:00 +9°C° 0 mm 1 mps 712 mmHg 82%
    01:00 +9°C° 0 mm 1 mps 712 mmHg 81%
    02:00 +8°C° 0 mm 1 mps 711 mmHg 81%
    03:00 +8°C° 0 mm 1 mps 711 mmHg 81%
    04:00 +8°C° 0 mm 1 mps 711 mmHg 80%
    05:00 +8°C° 0 mm 1 mps 711 mmHg 80%
    06:00 +8°C° 0 mm 1 mps 711 mmHg 79%
    07:00 +10°C° 0 mm 1 mps 712 mmHg 71%
    08:00 +11°C° 0 mm 1 mps 712 mmHg 63%
    09:00 +13°C° 0 mm 1 mps 713 mmHg 55%
    10:00 +14°C° 0 mm 1 mps 712 mmHg 50%
    11:00 +15°C° 0 mm 2 mps 712 mmHg 46%
    12:00 +16°C° 0 mm 2 mps 712 mmHg 41%
    13:00 +16°C° 0 mm 2 mps 712 mmHg 43%
    14:00 +16°C° 0 mm 2 mps 712 mmHg 45%
    15:00 +16°C° 0 mm 2 mps 711 mmHg 47%
    16:00 +14°C° 0 mm 2 mps 711 mmHg 54%
    17:00 +12°C° 0 mm 1 mps 711 mmHg 61%
    18:00 +11°C° 0 mm 1 mps 711 mmHg 69%
    19:00 +10°C° 0 mm 1 mps 711 mmHg 71%
    20:00 +10°C° 0 mm 1 mps 711 mmHg 73%
    21:00 +9°C° 0 mm 1 mps 711 mmHg 76%
    22:00 +9°C° 0 mm 1 mps 711 mmHg 76%
    23:00 +9°C° 0 mm 1 mps 710 mmHg 76%

    Tomorrow, 13 December, Thursday

    Time Temperature Precipitation Wind Pressure Humidity
    00:00 +9°C° 0 mm 1 mps 710 mmHg 76%
    01:00 +9°C° 0 mm 1 mps 710 mmHg 74%
    02:00 +9°C° 0 mm 1 mps 710 mmHg 73%
    03:00 +8°C° 0 mm 1 mps 709 mmHg 72%
    04:00 +7°C° 0 mm 2 mps 709 mmHg 70%
    05:00 +7°C° 0 mm 2 mps 709 mmHg 68%
    06:00 +7°C° 0 mm 2 mps 708 mmHg 65%
    07:00 +9°C° 0 mm 2 mps 709 mmHg 60%
    08:00 +12°C° 0 mm 2 mps 709 mmHg 54%
    09:00 +13°C° 0 mm 2 mps 709 mmHg 48%
    10:00 +15°C° 0 mm 2 mps 709 mmHg 44%
    11:00 +16°C° 0 mm 3 mps 708 mmHg 41%
    12:00 +18°C° 0 mm 3 mps 708 mmHg 37%
    13:00 +17°C° 0 mm 3 mps 707 mmHg 40%
    14:00 +17°C° 0 mm 3 mps 707 mmHg 42%
    15:00 +17°C° 0 mm 4 mps 706 mmHg 45%
    16:00 +16°C° 0 mm 3 mps 706 mmHg 49%
    17:00 +13°C° 0 mm 3 mps 705 mmHg 52%
    18:00 +13°C° 0 mm 2 mps 705 mmHg 56%
    19:00 +12°C° 0.3 mm 3 mps 705 mmHg 58%
    20:00 +11°C° 0.3 mm 3 mps 704 mmHg 61%
    21:00 +11°C° 0.3 mm 3 mps 704 mmHg 63%
    22:00 +11°C° 0.2 mm 4 mps 704 mmHg 65%
    23:00 +10°C° 0.2 mm 4 mps 703 mmHg 66%

    Day after tomorrow, 14 December, Friday

    Time Temperature Precipitation Wind Pressure Humidity
    00:00 +10°C° 0.2 mm 4 mps 703 mmHg 68%
    01:00 +8°C° 0.3 mm 4 mps 702 mmHg 68%
    02:00 +8°C° 0.3 mm 5 mps 702 mmHg 68%
    03:00 +7°C° 0.3 mm 5 mps 701 mmHg 68%
    04:00 +6°C° 0.1 mm 4 mps 701 mmHg 69%
    05:00 +6°C° 0.1 mm 4 mps 700 mmHg 69%
    06:00 +5°C° 0.1 mm 3 mps 700 mmHg 70%
    07:00 +7°C° 0.1 mm 3 mps 700 mmHg 69%
    08:00 +8°C° 0.1 mm 3 mps 701 mmHg 67%
    09:00 +8°C° 0.1 mm 3 mps 701 mmHg 66%
    10:00 +8°C° 0.1 mm 4 mps 701 mmHg 66%
    11:00 +10°C° 0.1 mm 4 mps 702 mmHg 65%
    12:00 +11°C° 0.1 mm 4 mps 702 mmHg 65%
    13:00 +9°C° 2.8 mm 7 mps 702 mmHg 73%
    14:00 +7°C° 2.8 mm 9 mps 702 mmHg 82%
    15:00 +7°C° 2.8 mm 12 mps 703 mmHg 91%
    16:00 +7°C° 2.7 mm 13 mps 704 mmHg 91%
    17:00 +6°C° 2.7 mm 14 mps 704 mmHg 90%
    18:00 +5°C° 2.7 mm 15 mps 705 mmHg 90%
    19:00 +5°C° 2.6 mm 14 mps 706 mmHg 89%
    20:00 +5°C° 2.6 mm 13 mps 707 mmHg 88%
    21:00 +5°C° 2.6 mm 13 mps 708 mmHg 87%
    22:00 +5°C° 0.4 mm 12 mps 708 mmHg 87%
    23:00 +6°C° 0.4 mm 11 mps 709 mmHg 87%

    15 December, Saturday

    Time Temperature Precipitation Wind Pressure Humidity
    00:00 +6°C° 0.4 mm 10 mps 709 mmHg 87%
    01:00 +6°C° 0.1 mm 10 mps 710 mmHg 86%
    02:00 +6°C° 0.1 mm 10 mps 710 mmHg 86%
    03:00 +6°C° 0.1 mm 10 mps 710 mmHg 86%
    04:00 +6°C° 0.1 mm 9 mps 711 mmHg 86%
    05:00 +6°C° 0.1 mm 9 mps 711 mmHg 87%
    06:00 +6°C° 0.1 mm 8 mps 712 mmHg 87%
    07:00 +6°C° 0.1 mm 8 mps 712 mmHg 85%
    08:00 +8°C° 0.1 mm 7 mps 713 mmHg 83%
    09:00 +8°C° 0.1 mm 7 mps 713 mmHg 81%
    10:00 +8°C° 0.2 mm 7 mps 713 mmHg 79%
    11:00 +9°C° 0.2 mm 7 mps 714 mmHg 77%
    12:00 +9°C° 0.2 mm 6 mps 714 mmHg 75%
    13:00 +9°C° 0.1 mm 6 mps 713 mmHg 76%
    14:00 +9°C° 0.1 mm 6 mps 713 mmHg 77%
    15:00 +9°C° 0.1 mm 6 mps 713 mmHg 79%
    16:00 +8°C° 0.1 mm 5 mps 714 mmHg 82%
    17:00 +8°C° 0.1 mm 4 mps 714 mmHg 85%
    18:00 +7°C° 0.1 mm 4 mps 714 mmHg 89%
    19:00 +8°C° 0 mm 3 mps 714 mmHg 89%
    20:00 +7°C° 0 mm 3 mps 715 mmHg 90%
    21:00 +7°C° 0 mm 3 mps 715 mmHg 91%
    22:00 +7°C° 0 mm 3 mps 715 mmHg 91%
    23:00 +7°C° 0 mm 3 mps 715 mmHg 91%

    16 December, Sunday

    Time Temperature Precipitation Wind Pressure Humidity
    00:00 +7°C° 0 mm 3 mps 715 mmHg 91%
    01:00 +6°C° 0 mm 2 mps 715 mmHg 90%
    02:00 +6°C° 0 mm 2 mps 715 mmHg 90%
    03:00 +6°C° 0 mm 2 mps 715 mmHg 89%
    04:00 +6°C° 0 mm 2 mps 715 mmHg 88%
    05:00 +6°C° 0 mm 2 mps 715 mmHg 88%
    06:00 +6°C° 0 mm 2 mps 715 mmHg 87%
    07:00 +8°C° 0 mm 2 mps 715 mmHg 81%
    08:00 +9°C° 0 mm 2 mps 716 mmHg 75%
    09:00 +12°C° 0 mm 2 mps 716 mmHg 68%
    10:00 +13°C° 0 mm 2 mps 716 mmHg 62%
    11:00 +15°C° 0 mm 2 mps 716 mmHg 56%
    12:00 +16°C° 0 mm 2 mps 716 mmHg 50%
    13:00 +18°C° 0 mm 1 mps 716 mmHg 52%
    14:00 +18°C° 0 mm 1 mps 716 mmHg 53%
    15:00 +18°C° 0 mm 1 mps 716 mmHg 54%
    16:00 +16°C° 0 mm 1 mps 716 mmHg 58%
    17:00 +14°C° 0 mm 1 mps 716 mmHg 63%
    18:00 +13°C° 0 mm 1 mps 715 mmHg 67%
    19:00 +13°C° 0 mm 1 mps 716 mmHg 67%
    20:00 +12°C° 0 mm 1 mps 716 mmHg 66%
    21:00 +12°C° 0 mm 2 mps 716 mmHg 65%
    22:00 +12°C° 0 mm 2 mps 716 mmHg 65%
    23:00 +12°C° 0 mm 2 mps 715 mmHg 64%

    17 December, Monday

    Time Temperature Precipitation Wind Pressure Humidity
    00:00 +12°C° 0 mm 2 mps 715 mmHg 64%
    01:00 +12°C° 0 mm 2 mps 715 mmHg 64%
    02:00 +12°C° 0 mm 2 mps 715 mmHg 65%
    03:00 +12°C° 0 mm 2 mps 714 mmHg 65%
    04:00 +12°C° 0 mm 2 mps 714 mmHg 65%
    05:00 +12°C° 0 mm 2 mps 714 mmHg 66%
    06:00 +10°C° 0 mm 2 mps 714 mmHg 66%
    07:00 +13°C° 0 mm 2 mps 715 mmHg 62%
    08:00 +15°C° 0 mm 2 mps 715 mmHg 58%
    09:00 +16°C° 0 mm 2 mps 716 mmHg 54%
    10:00 +18°C° 0 mm 3 mps 716 mmHg 50%
    11:00 +19°C° 0 mm 3 mps 716 mmHg 45%
    12:00 +21°C° 0 mm 3 mps 716 mmHg 41%
    13:00 +20°C° 0 mm 2 mps 715 mmHg 43%
    14:00 +20°C° 0 mm 2 mps 715 mmHg 46%
    15:00 +20°C° 0 mm 2 mps 715 mmHg 48%
    16:00 +18°C° 0 mm 2 mps 715 mmHg 54%
    17:00 +16°C° 0 mm 1 mps 715 mmHg 59%
    18:00 +14°C° 0 mm 1 mps 716 mmHg 65%
    19:00 +14°C° 0 mm 1 mps 716 mmHg 66%
    20:00 +13°C° 0 mm 1 mps 716 mmHg 67%
    21:00 +13°C° 0 mm 1 mps 716 mmHg 68%
    22:00 +13°C° 0 mm 1 mps 716 mmHg 69%
    23:00 +12°C° 0 mm 1 mps 716 mmHg 70%
    Show more